| time (UTC) | temp F | wind direction | speed knots | gust knots | rain 1hr in | rain 24hr in | rain mn in | humidity % | barometer mb |
| 20260505035746 | 81 | 320 | 0.0 | 0.9 | 0.00 | 0.03 | 0.03 | 75 | 1011.8 |
| 20260505035242 | 81 | 331 | 1.7 | 1.7 | 0.00 | 0.03 | 0.03 | 73 | 1011.9 |
| 20260505034739 | 81 | 41 | 0.9 | 0.9 | 0.00 | 0.03 | 0.03 | 72 | 1011.9 |
| 20260505034236 | 81 | 14 | 0.9 | 3.5 | 0.00 | 0.03 | 0.03 | 74 | 1012.1 |
| 20260505033732 | 81 | 37 | 0.9 | 2.6 | 0.00 | 0.03 | 0.03 | 73 | 1011.9 |
| 20260505033230 | 81 | 31 | 0.9 | 1.7 | 0.00 | 0.03 | 0.03 | 72 | 1012.0 |
| 20260505032728 | 82 | 354 | 0.9 | 1.7 | 0.00 | 0.03 | 0.03 | 73 | 1012.2 |
| 20260505032223 | 82 | 330 | 0.0 | 0.9 | 0.00 | 0.03 | 0.03 | 73 | 1012.0 |
| 20260505031721 | 80 | 19 | 0.0 | 1.7 | 0.00 | 0.03 | 0.03 | 75 | 1012.0 |
| 20260505031217 | 79 | 298 | 0.0 | 0.9 | 0.00 | 0.03 | 0.03 | 76 | 1012.0 |
| 20260505030715 | 79 | 355 | 0.0 | 1.7 | 0.00 | 0.03 | 0.03 | 76 | 1012.1 |
| 20260505030211 | 79 | 301 | 0.0 | 0.9 | 0.00 | 0.03 | 0.03 | 76 | 1012.3 |
| 20260505025707 | 78 | 303 | 1.7 | 1.7 | 0.00 | 0.03 | 0.03 | 77 | 1012.3 |
| 20260505025205 | 78 | 341 | 0.9 | 0.9 | 0.00 | 0.03 | 0.03 | 80 | 1012.2 |
| 20260505024703 | 76 | 315 | 0.0 | 0.9 | 0.00 | 0.03 | 0.03 | 82 | 1012.2 |
| 20260505024159 | 76 | 323 | 0.0 | 0.9 | 0.00 | 0.03 | 0.03 | 82 | 1012.2 |
| 20260505023657 | 76 | 343 | 0.9 | 1.7 | 0.00 | 0.03 | 0.03 | 82 | 1012.0 |
| 20260505023154 | 76 | 324 | 0.0 | 2.6 | 0.00 | 0.03 | 0.03 | 82 | 1012.2 |
| 20260505022651 | 76 | 324 | 0.9 | 2.6 | 0.00 | 0.03 | 0.03 | 83 | 1012.2 |
| 20260505022148 | 76 | 7 | 1.7 | 2.6 | 0.00 | 0.03 | 0.03 | 83 | 1012.4 |
| 20260505021645 | 75 | 305 | 3.5 | 5.2 | 0.00 | 0.03 | 0.03 | 83 | 1012.3 |
| 20260505021142 | 75 | 319 | 0.9 | 5.2 | 0.00 | 0.03 | 0.03 | 84 | 1012.0 |
| 20260505020637 | 75 | 331 | 0.0 | 0.9 | 0.00 | 0.03 | 0.03 | 85 | 1011.7 |
| 20260505020133 | 74 | 272 | 1.7 | 2.6 | 0.00 | 0.03 | 0.03 | 86 | 1011.5 |
| 20260505015631 | 74 | 282 | 0.0 | 1.7 | 0.00 | 0.03 | 0.03 | 86 | 1011.5 |
| 20260505015127 | 74 | 333 | 0.9 | 1.7 | 0.00 | 0.03 | 0.03 | 86 | 1011.4 |
| 20260505014624 | 74 | 296 | 0.9 | 1.7 | 0.00 | 0.03 | 0.03 | 86 | 1011.3 |
| 20260505014121 | 74 | 320 | 0.9 | 1.7 | 0.00 | 0.03 | 0.03 | 86 | 1011.1 |
| 20260505013619 | 74 | 344 | 0.9 | 2.6 | 0.00 | 0.03 | 0.03 | 86 | 1010.8 |
| 20260505013116 | 74 | 318 | 0.9 | 0.9 | 0.00 | 0.03 | 0.03 | 86 | 1011.0 |
| 20260505012614 | 74 | 339 | 0.9 | 0.9 | 0.00 | 0.03 | 0.03 | 86 | 1010.8 |
| 20260505012111 | 74 | 324 | 0.9 | 2.6 | 0.00 | 0.03 | 0.03 | 86 | 1010.5 |
| 20260505011606 | 74 | 342 | 0.0 | 2.6 | 0.00 | 0.03 | 0.03 | 86 | 1010.7 |
| 20260505011104 | 74 | 330 | 0.0 | 1.7 | 0.00 | 0.03 | 0.03 | 86 | 1010.2 |
| 20260505010604 | 73 | 26 | 0.0 | 0.9 | 0.00 | 0.03 | 0.03 | 86 | 1010.0 |
| 20260505005557 | 73 | 155 | 0.9 | 0.9 | 0.00 | 0.03 | 0.03 | 86 | 1009.7 |
| 20260505005055 | 73 | 171 | 0.0 | 0.9 | 0.00 | 0.03 | 0.03 | 86 | 1009.8 |
| 20260505004552 | 73 | 171 | 0.0 | 0.0 | 0.00 | 0.03 | 0.03 | 87 | 1009.6 |
| 20260505004049 | 73 | 170 | 0.0 | 0.9 | 0.00 | 0.03 | 0.03 | 87 | 1009.3 |
| 20260505003546 | 72 | 164 | 0.0 | 0.9 | 0.00 | 0.03 | 0.03 | 87 | 1009.2 |
| 20260505003043 | 72 | 165 | 0.0 | 1.7 | 0.00 | 0.03 | 0.03 | 87 | 1009.2 |
| 20260505002543 | 72 | 85 | 0.0 | 0.0 | 0.00 | 0.03 | 0.03 | 88 | 1009.0 |
| 20260505002043 | 72 | 177 | 0.9 | 1.7 | 0.00 | 0.03 | 0.03 | 87 | 1008.7 |
| 20260505001540 | 72 | 173 | 0.9 | 1.7 | 0.00 | 0.03 | 0.03 | 87 | 1008.8 |
| 20260505001037 | 72 | 173 | 1.7 | 2.6 | 0.00 | 0.03 | 0.03 | 87 | 1008.9 |
| 20260505000535 | 72 | 183 | 0.9 | 1.7 | 0.00 | 0.03 | 0.03 | 88 | 1008.6 |
| 20260505000032 | 72 | 183 | 1.7 | 7.8 | 0.00 | 0.03 | 0.03 | 88 | 1008.6 |
| 20260504235528 | 72 | 167 | 1.7 | 3.5 | 0.00 | 0.03 | 0.03 | 88 | 1008.3 |
| 20260504235025 | 72 | 125 | 2.6 | 5.2 | 0.00 | 0.03 | 0.03 | 88 | 1008.1 |
| 20260504234522 | 72 | 168 | 2.6 | 5.2 | 0.00 | 0.03 | 0.03 | 88 | 1008.2 |
| 20260504234019 | 72 | 143 | 4.3 | 7.8 | 0.00 | 0.03 | 0.03 | 89 | 1008.3 |
| 20260504233514 | 72 | 188 | 1.7 | 5.2 | 0.00 | 0.03 | 0.03 | 89 | 1008.4 |
| 20260504233012 | 72 | 181 | 0.9 | 0.9 | 0.00 | 0.03 | 0.03 | 89 | 1008.5 |
| 20260504232508 | 72 | 147 | 1.7 | 1.7 | 0.00 | 0.03 | 0.03 | 89 | 1008.2 |
| 20260504232006 | 72 | 184 | 1.7 | 5.2 | 0.00 | 0.03 | 0.03 | 89 | 1008.0 |
| 20260504231502 | 72 | 198 | 2.6 | 3.5 | 0.00 | 0.03 | 0.03 | 89 | 1008.0 |
| 20260504230959 | 72 | 158 | 1.7 | 2.6 | 0.00 | 0.03 | 0.03 | 89 | 1007.7 |
| 20260504230455 | 72 | 150 | 1.7 | 5.2 | 0.00 | 0.03 | 0.03 | 89 | 1008.0 |
| 20260504225954 | 72 | 135 | 0.9 | 1.7 | 0.00 | 0.03 | 0.03 | 89 | 1008.6 |
| 20260504225450 | 72 | 142 | 0.0 | 2.6 | 0.00 | 0.03 | 0.03 | 89 | 1009.2 |
| 20260504224948 | 72 | 172 | 0.9 | 2.6 | 0.00 | 0.03 | 0.03 | 89 | 1009.3 |
| 20260504224444 | 72 | 187 | 0.9 | 1.7 | 0.00 | 0.03 | 0.03 | 89 | 1009.4 |
| 20260504223941 | 72 | 222 | 0.0 | 1.7 | 0.00 | 0.03 | 0.03 | 89 | 1009.6 |
| 20260504223437 | 72 | 177 | 0.0 | 1.7 | 0.00 | 0.03 | 0.03 | 89 | 1009.9 |
| 20260504222933 | 72 | 166 | 1.7 | 1.7 | 0.00 | 0.03 | 0.03 | 89 | 1010.3 |
| 20260504222431 | 72 | 230 | 0.9 | 2.6 | 0.00 | 0.03 | 0.03 | 89 | 1010.3 |
| 20260504221928 | 72 | 153 | 2.6 | 5.2 | 0.00 | 0.03 | 0.03 | 89 | 1009.7 |
| 20260504221425 | 72 | 151 | 0.9 | 1.7 | 0.00 | 0.03 | 0.03 | 89 | 1010.2 |
| 20260504220922 | 72 | 77 | 0.0 | 0.9 | 0.00 | 0.03 | 0.03 | 89 | 1010.4 |
| 20260504220419 | 71 | 79 | 0.0 | 0.9 | 0.00 | 0.03 | 0.03 | 89 | 1010.4 |
| 20260504215916 | 71 | 15 | 0.0 | 0.9 | 0.07 | 0.03 | 0.03 | 89 | 1010.3 |
| 20260504215413 | 71 | 343 | 0.9 | 1.7 | 0.07 | 0.03 | 0.03 | 89 | 1010.8 |
| 20260504214909 | 71 | 20 | 0.9 | 2.6 | 0.00 | 0.02 | 0.02 | 89 | 1010.4 |
| 20260504214406 | 71 | 77 | 0.0 | 1.7 | 0.00 | 0.02 | 0.02 | 89 | 1010.7 |
| 20260504213902 | 71 | 353 | 0.0 | 1.7 | 0.00 | 0.02 | 0.02 | 89 | 1011.0 |
| 20260504213358 | 71 | 22 | 0.0 | 0.9 | 0.05 | 0.02 | 0.02 | 89 | 1011.3 |
| 20260504212856 | 71 | 289 | 1.7 | 1.7 | 0.05 | 0.02 | 0.02 | 88 | 1011.1 |
| 20260504212351 | 71 | 15 | 0.0 | 1.7 | 0.00 | 0.01 | 0.01 | 88 | 1011.2 |
| 20260504211850 | 71 | 326 | 0.9 | 2.6 | 0.00 | 0.01 | 0.01 | 88 | 1011.1 |
| 20260504211345 | 71 | 337 | 0.0 | 1.7 | 0.00 | 0.01 | 0.01 | 88 | 1011.4 |
| 20260504210843 | 71 | 18 | 0.0 | 1.7 | 0.00 | 0.01 | 0.01 | 88 | 1011.4 |
| 20260504210340 | 71 | 322 | 0.9 | 0.9 | 0.00 | 0.01 | 0.01 | 88 | 1011.3 |
| 20260504205837 | 71 | 324 | 0.9 | 2.6 | 0.00 | 0.01 | 0.01 | 88 | 1011.4 |
| 20260504205335 | 71 | 343 | 1.7 | 5.2 | 0.00 | 0.01 | 0.01 | 88 | 1011.6 |
| 20260504204833 | 71 | 280 | 0.9 | 2.6 | 0.00 | 0.01 | 0.01 | 87 | 1011.7 |
| 20260504204331 | 71 | 32 | 2.6 | 5.2 | 0.00 | 0.01 | 0.01 | 87 | 1011.8 |
| 20260504203830 | 71 | 322 | 0.9 | 1.7 | 0.00 | 0.01 | 0.01 | 87 | 1011.7 |
| 20260504203326 | 71 | 305 | 0.9 | 3.5 | 0.00 | 0.01 | 0.01 | 87 | 1012.1 |
| 20260504202822 | 71 | 291 | 0.9 | 3.5 | 0.00 | 0.01 | 0.01 | 87 | 1011.8 |
| 20260504202320 | 71 | 315 | 0.9 | 2.6 | 0.00 | 0.01 | 0.01 | 87 | 1011.9 |
| 20260504201816 | 72 | 347 | 0.9 | 2.6 | 0.00 | 0.01 | 0.01 | 87 | 1011.8 |
| 20260504201314 | 71 | 317 | 0.9 | 3.5 | 0.07 | 0.01 | 0.01 | 87 | 1011.6 |
| 20260504200811 | 72 | 336 | 0.9 | 5.2 | 0.07 | 0.01 | 0.01 | 87 | 1011.9 |
| 20260504200307 | 72 | 78 | 1.7 | 5.2 | 0.00 | 0.00 | 0.00 | 87 | 1011.7 |
| 20260504195803 | 72 | 308 | 1.7 | 2.6 | 0.00 | 0.00 | 0.00 | 87 | 1011.7 |
| 20260504195259 | 71 | 288 | 2.6 | 6.1 | 0.00 | 0.00 | 0.00 | 86 | 1011.7 |
| 20260504194756 | 71 | 304 | 1.7 | 7.8 | 0.00 | 0.00 | 0.00 | 86 | 1012.0 |
| 20260504194253 | 72 | 306 | 1.7 | 7.0 | 0.00 | 0.00 | 0.00 | 86 | 1011.9 |
| 20260504193749 | 72 | 8 | 6.1 | 8.7 | 0.00 | 0.00 | 0.00 | 85 | 1011.7 |
| 20260504193246 | 73 | 39 | 8.7 | 13.9 | 0.00 | 0.00 | 0.00 | 83 | 1011.7 |
| 20260504192745 | 73 | 295 | 5.2 | 13.0 | 0.00 | 0.00 | 0.00 | 82 | 1011.8 |
| 20260504192242 | 73 | 230 | 1.7 | 8.7 | 0.00 | 0.00 | 0.00 | 81 | 1011.5 |
| 20260504191741 | 74 | 19 | 1.7 | 9.6 | 0.00 | 0.00 | 0.00 | 80 | 1011.6 |
| 20260504191237 | 74 | 344 | 1.7 | 7.8 | 0.00 | 0.00 | 0.00 | 81 | 1011.4 |
| 20260504190733 | 74 | 229 | 0.9 | 6.1 | 0.00 | 0.00 | 0.00 | 80 | 1011.5 |
| 20260504190230 | 75 | 359 | 2.6 | 7.0 | 0.00 | 0.00 | 0.00 | 81 | 1011.5 |
| 20260504185726 | 75 | 214 | 2.6 | 5.2 | 0.00 | 0.00 | 0.00 | 82 | 1011.3 |
| 20260504185223 | 75 | 16 | 4.3 | 9.6 | 0.00 | 0.00 | 0.00 | 84 | 1011.3 |
| 20260504184719 | 75 | 332 | 3.5 | 7.0 | 0.00 | 0.00 | 0.00 | 85 | 1011.1 |
| 20260504184215 | 75 | 15 | 2.6 | 8.7 | 0.00 | 0.00 | 0.00 | 86 | 1011.2 |
| 20260504183711 | 75 | 307 | 0.9 | 7.8 | 0.00 | 0.00 | 0.00 | 87 | 1011.0 |
| 20260504183208 | 75 | 329 | 0.9 | 0.9 | 0.00 | 0.00 | 0.00 | 87 | 1010.6 |
| 20260504182706 | 75 | 317 | 0.0 | 0.9 | 0.00 | 2.48 | 2.48 | 87 | 1010.4 |
| 20260504182203 | 75 | 321 | 0.0 | 1.7 | 0.00 | 2.48 | 2.48 | 88 | 1010.5 |
| 20260504181701 | 75 | 311 | 0.9 | 0.9 | 0.00 | 2.48 | 2.48 | 88 | 1010.6 |
| 20260504181158 | 75 | 224 | 0.0 | 0.9 | 0.00 | 2.48 | 2.48 | 88 | 1010.4 |
| 20260504180657 | 75 | 181 | 0.0 | 0.0 | 0.00 | 2.48 | 2.48 | 88 | 1010.5 |
| 20260504180155 | 75 | 184 | 0.0 | 0.9 | 0.00 | 2.48 | 2.48 | 88 | 1010.3 |
| 20260504175652 | 75 | 159 | 0.0 | 0.9 | 0.00 | 2.48 | 2.48 | 88 | 1010.4 |
| 20260504175149 | 75 | 155 | 0.0 | 0.0 | 0.00 | 2.48 | 2.48 | 88 | 1010.6 |
| 20260504174647 | 75 | 155 | 0.0 | 0.0 | 0.00 | 2.48 | 2.48 | 87 | 1010.7 |
| 20260504174143 | 76 | 155 | 0.0 | 0.0 | 0.00 | 2.48 | 2.48 | 87 | 1010.5 |
| 20260504173640 | 76 | 155 | 0.0 | 0.9 | 0.00 | 2.48 | 2.48 | 87 | 1010.4 |
| 20260504173138 | 76 | 155 | 0.0 | 0.9 | 0.00 | 2.48 | 2.48 | 87 | 1010.6 |
| 20260504172635 | 76 | 164 | 0.0 | 0.0 | 0.00 | 2.48 | 2.48 | 87 | 1010.5 |
| 20260504172131 | 76 | 164 | 0.0 | 0.0 | 0.00 | 2.48 | 2.48 | 87 | 1010.5 |
| 20260504171627 | 76 | 164 | 0.0 | 0.0 | 0.00 | 2.48 | 2.48 | 86 | 1010.5 |
| 20260504171125 | 76 | 164 | 0.0 | 0.0 | 0.00 | 2.48 | 2.48 | 86 | 1010.2 |
| 20260504170621 | 76 | 164 | 0.0 | 0.0 | 0.00 | 2.48 | 2.48 | 86 | 1010.2 |
| 20260504170119 | 76 | 164 | 0.0 | 0.9 | 0.00 | 2.48 | 2.48 | 86 | 1010.2 |
| 20260504151004 | 75 | 174 | 1.7 | 2.6 | 0.00 | 2.48 | 2.48 | 83 | 1009.8 |
| 20260504150501 | 75 | 172 | 0.9 | 2.6 | 0.00 | 2.48 | 2.48 | 84 | 1009.6 |
| 20260504140927 | 75 | 187 | 0.9 | 6.1 | 0.00 | 2.48 | 2.48 | 81 | 1008.0 |
| 20260504140424 | 75 | 187 | 1.7 | 6.1 | 0.00 | 2.48 | 2.48 | 81 | 1008.0 |
| 20260504130349 | 74 | 177 | 2.6 | 7.0 | 0.00 | 2.48 | 2.48 | 84 | 1008.1 |
| 20260504120311 | 74 | 167 | 1.7 | 3.5 | 0.05 | 2.48 | 2.48 | 90 | 1007.1 |
| 20260504110236 | 75 | 304 | 6.1 | 13.0 | 2.03 | 0.35 | 0.35 | 84 | 1006.3 |
| 20260504100159 | 93 | 184 | 0.9 | 1.7 | 0.00 | 0.00 | 0.00 | 63 | 1006.3 |
| 20260504090122 | 96 | 193 | 0.0 | 1.7 | 0.00 | 0.00 | 0.00 | 55 | 1007.2 |
| 20260504081558 | 97 | 195 | 0.0 | 1.7 | 0.00 | 0.00 | 0.00 | 56 | 1008.3 |
| 20260504081054 | 99 | 182 | 1.7 | 1.7 | 0.00 | 0.00 | 0.00 | 51 | 1008.3 |
| 20260504080551 | 98 | 290 | 1.7 | 2.6 | 0.00 | 0.00 | 0.00 | 51 | 1008.4 |
| 20260504050403 | 94 | 164 | 1.7 | 2.6 | 0.00 | 0.00 | 0.00 | 55 | 1010.6 |
| 20260504045900 | 95 | 164 | 1.7 | 1.7 | 0.00 | 0.00 | 0.00 | 52 | 1010.4 |
| 20260504045355 | 94 | 160 | 0.9 | 1.7 | 0.00 | 0.00 | 0.00 | 56 | 1010.7 |
| 20260504044853 | 93 | 127 | 1.7 | 2.6 | 0.00 | 0.00 | 0.00 | 56 | 1010.5 |
| 20260504044350 | 93 | 263 | 0.0 | 2.6 | 0.00 | 0.00 | 0.00 | 57 | 1010.3 |
| 20260504043847 | 93 | 159 | 0.0 | 2.6 | 0.00 | 0.00 | 0.00 | 57 | 1010.5 |
| 20260504043344 | 94 | 222 | 0.0 | 0.9 | 0.00 | 0.00 | 0.00 | 57 | 1010.4 |
| 20260504042841 | 92 | 156 | 0.0 | 1.7 | 0.00 | 0.00 | 0.00 | 58 | 1010.4 |
| 20260504042338 | 92 | 184 | 3.5 | 3.5 | 0.00 | 0.00 | 0.00 | 57 | 1010.3 |
| 20260504041834 | 92 | 299 | 1.7 | 2.6 | 0.00 | 0.00 | 0.00 | 58 | 1010.4 |
| 20260504041330 | 91 | 165 | 1.7 | 5.2 | 0.00 | 0.00 | 0.00 | 60 | 1010.5 |
| 20260504040826 | 92 | 182 | 2.6 | 3.5 | 0.00 | 0.00 | 0.00 | 58 | 1010.5 |
| 20260504040324 | 91 | 178 | 0.9 | 1.7 | 0.00 | 0.00 | 0.00 | 59 | 1010.5 |